Location: Unspecified
(54.1780°N, 0.0000°E)
Time: 15:24:30
(UTC+00:00)

Transit 2A - Pass Details

Date: 19 June 2019
Orbit: 597 x 962 km, 66.7° (Epoch: 19 August)

Event Time Altitude Azimuth Distance (km) Brightness Sun altitude
Rises 02:07:26 0° 225° (SW) 3,633 - -7.8°
Exits shadow 02:09:30 - 226° (SW) 2,881 8.3 -7.6°
Reaches altitude 10° 02:10:00 10° 226° (SW) 2,696 8.2 -7.6°
Maximum altitude 02:16:24 78° 313° (NW) 977 6.6 -7.1°
Drops below altitude 10° 02:22:35 10° 41° (NE) 2,614 10.5 -6.7°
Sets 02:25:03 0° 43° (NE) 3,517 11.6 -6.5°
